Temperature
18 18 18 18 17 17 17 17 17 16 16 17 17 17 17 17 16 16 16 16 16 16 16 16 16 15 15 15 15 15 15 15 15 15 15 15 15 15
17 17 18 17 17 17 17 17 17 17 16 17 17 17 17 16 16 16 16 16 16 16 16 16 16 15 15 15 15 15 15 15 15 15 15 15 15 15
17 17 17 17 17 17 17 17 17 16 16 16 16 16 16 16 16 16 16 16 16 16 15 15 15 15 15 15 15 15 15 15 15 15 15 15 14 14
17 17 17 17 17 17 17 17 17 16 16 16 16 16 16 16 16 16 16 15 15 15 15 15 15 15 15 15 15 15 15 15 15 15 15 14 14 14
17 17 17 17 17 17 17 17 16 16 16 16 16 16 16 16 15 15 15 15 15 15 15 15 15 15 15 15 15 15 14 14 14 14 14 14 14 14
17 17 17 17 17 16 16 16 16 16 16 16 16 15 15 15 15 15 15 15 15 15 15 14 14 14 14 14 14 14 14 14 14 14 14 14 14 14
16 16 16 16 16 16 16 16 16 16 15 15 15 15 15 15 15 15 15 15 14 14 14 14 14 14 14 14 14 14 14 14 14 14 14 13 14 14
16 16 16 16 16 16 16 16 15 15 15 15 15 15 15 15 15 14 14 14 14 14 14 14 14 14 14 14 14 14 14 14 14 14 14 13 13 13
16 16 16 16 16 16 15 15 15 15 15 15 15 15 15 15 14 14 14 14 14 14 13 14 14 14 14 14 13 14 14 14 13 13 13 13 13 13
15 16 15 15 15 15 15 15 15 15 15 14 14 14 14 14 14 14 14 13 13 13 13 13 13 13 13 13 13 13 13 13 13 13 13 13 13 13
15 15 15 15 15 15 15 14 14 14 14 14 14 14 14 14 14 13 13 13 13 13 13 13 13 13 13 13 13 13 13 13 13 13 13 13 13 13
15 15 15 15 14 14 14 14 14 14 14 14 13 13 13 13 13 13 13 13 13 12 12 12 12 12 12 13 12 12 12 12 12 12 12 12 12 12
14 14 14 14 14 14 13 13 13 13 13 13 13 13 13 13 13 13 12 12 12 12 12 12 12 12 12 12 12 12 12 12 12 12 12 12 12 12
14 14 14 14 13 13 13 13 13 13 13 13 12 12 12 12 12 12 12 12 12 12 12 12 12 12 12 11 11 12 12 12 12 12 12 12 12 11
13 13 13 13 13 13 13 13 12 12 12 12 12 12 12 12 12 12 12 11 11 11 11 11 11 11 11 11 11 11 11 11 11 11 11 11 11 11
13 13 13 13 13 13 12 12 12 12 12 12 11 11 11 11 11 11 11 11 11 11 11 11 11 11 11 11 11 11 11 11 11 11 11 11 11 11
13 13 13 12 12 12 12 12 12 11 11 11 11 11 11 11 11 11 10 10 10 10 10 11 11 10 10 10 10 10 10 11 11 10 10 10 10 10
12 12 12 12 12 11 11 11 11 11 11 11 11 10 10 10 10 10 10 10 10 10 10 10 10 10 10 10 10 10 10 10 10 10 10 10 10 10
12 12 12 11 11 11 11 11 11 11 10 10 10 10 10 10 10 10 10 10 9 9 9 9 9 9 9 9 9 9 9 9 10 10 10 10 10 10
11 11 11 11 11 11 11 10 10 10 10 10 10 10 10 10 9 9 9 9 9 9 9 9 9 9 9 8 8 9 9 9 9 9 9 9 9 9
11 11 11 11 10 10 10 10 10 10 10 9 9 9 9 9 9 9 9 9 9 9 8 8 8 8 8 8 8 8 8 9 9 9 9 9 9 9
10 10 10 10 10 10 10 10 10 9 9 9 9 9 9 9 9 8 8 8 8 8 8 8 8 8 8 8 8 8 8 8 8 8 8 8 8 8
10 10 10 10 10 10 9 9 9 9 9 9 9 9 8 8 8 8 8 8 8 8 8 7 7 7 7 7 7 8 8 8 8 8 8 8 8 8
Wind_Speed
2 2 2 2 2 2 2 3 3 2 4 4 2 2 2 3 4 5 5 6 8 8 9 8 8 8 7 7 8 8 8 8 8 8 9 9 10 11
2 1 1 1 1 1 1 2 3 3 3 3 3 2 2 2 4 4 5 6 7 8 8 8 8 7 7 7 7 7 7 7 7 8 8 8 8 9
2 1 2 2 1 1 1 1 1 2 3 4 2 2 1 2 1 2 3 3 4 7 8 8 8 8 7 8 8 8 7 7 7 7 8 8 8 8
2 2 2 1 1 1 1 1 2 2 2 3 3 2 2 2 2 2 2 3 3 4 7 7 7 7 7 7 8 8 7 7 6 6 7 7 8 8
3 3 3 1 1 1 1 1 1 1 1 2 3 2 2 1 1 1 1 1 2 3 5 5 6 6 7 7 7 7 7 7 6 6 6 6 7 7
2 2 2 2 2 2 1 1 1 1 1 1 2 2 1 1 0 1 1 1 1 1 1 3 4 6 7 7 7 7 8 8 8 7 6 6 6 7
2 2 3 3 3 2 2 2 1 1 1 1 2 1 2 1 1 1 1 1 2 1 1 1 2 3 4 6 7 8 8 8 8 9 8 7 7 7
2 2 2 1 2 1 2 2 3 3 3 2 2 3 4 3 2 2 1 0 2 1 1 2 2 3 4 4 6 8 9 9 9 9 9 8 7 7
3 3 3 2 2 1 1 2 2 3 4 5 4 5 5 4 3 3 3 2 4 3 1 3 2 3 4 5 7 8 8 9 9 9 10 9 9 8
4 4 4 3 2 2 1 2 2 3 3 3 5 6 5 4 5 5 4 3 2 2 2 2 3 3 4 4 7 8 8 9 9 10 10 11 10 9
3 3 3 3 3 1 0 2 3 4 3 2 3 5 5 3 3 2 2 1 2 3 2 2 2 3 3 3 5 7 8 8 8 8 9 10 10 8
2 2 3 3 3 2 1 2 3 4 3 3 3 3 2 2 3 3 4 3 2 2 2 2 2 1 2 3 3 3 4 6 7 7 7 8 8 5
2 2 2 3 3 3 3 3 5 4 2 2 2 2 2 1 1 1 2 3 2 3 3 2 2 2 2 2 3 2 3 3 3 4 6 6 7 7
3 3 3 3 3 3 3 4 3 1 1 1 1 2 2 2 2 2 2 2 2 3 3 2 2 2 2 2 3 2 2 3 3 3 3 5 6 7
3 4 4 4 3 3 4 4 2 0 0 1 2 3 3 3 2 1 1 1 2 2 1 1 1 1 1 2 3 2 2 2 2 2 2 3 3 4
2 3 3 3 2 2 2 1 1 2 2 2 2 2 2 1 1 1 1 1 1 3 3 1 1 2 1 2 2 3 2 2 2 2 2 2 3 4
0 1 2 1 2 1 1 2 1 1 1 2 1 1 1 2 2 1 1 0 1 2 3 2 1 1 2 2 2 3 2 2 2 2 1 2 3 4
2 0 1 1 1 1 1 2 1 1 2 1 1 1 1 2 2 2 1 1 2 3 3 2 1 2 2 2 2 2 2 2 2 1 1 2 3 3
2 0 1 1 2 2 2 2 2 2 1 1 1 2 2 2 2 2 1 1 2 3 3 2 1 1 1 3 4 2 2 2 1 1 1 2 3 4
0 1 1 2 2 2 1 1 1 1 1 1 1 1 1 1 1 2 2 2 2 2 2 2 1 2 3 4 3 3 4 2 2 1 1 1 2 3
1 1 1 2 2 2 1 1 1 1 1 1 1 1 1 1 1 2 2 2 2 1 2 3 4 4 2 1 0 2 3 4 4 3 2 1 2 2
2 2 2 2 2 1 1 1 0 0 1 1 2 1 1 1 2 2 2 2 2 3 3 2 2 1 0 1 2 3 3 4 4 3 3 4 3 3
3 2 2 2 1 1 1 1 1 1 1 1 2 2 1 1 2 2 2 2 2 2 1 1 1 1 1 1 2 2 3 3 2 2 3 6 6 6
Wind_Direction
253 246 240 259 246 224 202 185 185 241 273 270 275 266 226 209 222 212 208 217 219 215 212 213 214 214 214 215 216 218 220 218 218 218 214 217 223 223
244 254 268 277 283 265 226 206 188 197 242 259 261 275 251 235 232 214 212 218 214 210 211 212 212 212 211 211 212 213 213 216 216 211 209 212 221 226
270 254 268 272 279 281 262 212 210 194 237 280 282 294 280 257 255 213 211 204 208 211 208 207 208 209 208 209 208 206 205 209 215 211 207 210 214 223
257 259 271 283 292 273 253 252 242 222 209 266 296 303 284 248 244 233 219 204 196 206 207 206 207 207 206 207 207 205 205 206 209 206 207 208 213 220
230 230 245 236 275 283 267 275 264 268 222 229 278 289 292 292 292 288 285 263 212 201 203 208 209 204 207 213 214 211 212 213 212 208 210 214 213 214
241 232 225 208 219 238 263 263 255 254 242 232 279 297 293 288 312 295 313 305 267 225 207 198 213 217 219 220 219 217 218 220 220 215 216 219 219 219
244 243 226 208 210 225 243 239 221 227 224 232 260 290 285 284 253 239 254 288 281 268 267 250 218 230 234 230 226 225 223 225 225 225 224 222 223 227
238 262 255 242 249 270 262 253 222 216 223 226 245 248 256 243 234 231 226 261 277 268 195 265 233 241 244 239 233 226 226 228 228 230 231 226 221 222
227 233 252 264 260 256 301 323 292 252 222 213 226 242 242 234 214 226 222 215 241 239 185 262 262 255 253 246 236 232 228 227 228 230 229 226 224 226
229 216 218 242 254 255 286 322 310 292 260 230 226 238 240 232 212 211 214 225 264 267 183 235 259 254 256 248 239 232 229 228 230 232 228 224 223 224
244 225 215 231 248 244 258 300 309 307 308 267 238 235 236 233 199 169 169 174 264 269 225 194 247 265 267 261 252 239 234 231 232 233 229 221 219 220
283 271 246 239 249 238 202 222 264 283 304 328 327 308 284 255 199 193 198 201 233 254 245 184 232 251 282 272 265 256 244 244 242 240 236 223 210 202
268 272 264 254 252 248 233 231 240 257 285 306 310 316 324 312 273 214 195 192 214 244 233 185 208 219 224 269 285 261 241 242 239 242 241 227 209 195
253 262 264 263 253 249 254 249 254 285 314 328 323 299 285 279 265 244 224 221 217 225 231 183 193 205 212 251 269 278 270 257 225 223 222 218 218 219
265 268 274 271 264 257 253 248 247 201 217 249 265 271 266 265 267 278 305 301 300 299 281 225 183 196 185 225 251 257 267 269 237 216 207 205 207 204
314 315 314 303 283 262 277 281 226 201 208 239 254 269 282 289 281 267 271 324 335 318 318 300 196 174 215 238 234 261 251 241 240 231 206 217 231 224
2 15 6 357 352 341 324 307 282 237 238 255 255 271 284 281 272 265 239 237 267 286 304 317 313 237 220 216 235 249 255 269 256 221 192 233 250 237
123 133 293 294 281 281 284 293 301 292 279 260 249 245 253 263 270 266 238 224 248 262 270 280 331 6 358 325 245 227 251 260 268 230 195 218 259 257
113 217 258 263 264 259 257 262 278 290 279 248 247 252 253 256 259 263 257 261 264 268 274 276 247 159 265 292 300 261 227 255 258 265 238 224 245 267
191 225 241 250 247 245 256 273 294 321 324 292 278 273 251 245 260 263 248 239 252 268 290 303 250 216 219 237 252 283 271 234 224 241 268 293 282 294
267 245 241 238 241 245 248 245 246 286 307 300 283 280 281 277 263 256 244 239 232 233 248 257 253 250 238 142 311 296 291 275 245 223 225 270 296 306
245 238 241 237 239 246 242 225 219 247 267 267 270 277 278 256 257 261 252 243 231 230 242 265 288 286 176 205 254 276 291 308 321 302 252 229 208 221
236 229 233 233 229 232 228 208 195 229 246 251 267 278 279 279 271 266 270 261 246 241 245 269 295 299 262 237 251 274 284 294 318 351 327 305 273 258
Height
1521 1521 1520 1520 1520 1520 1519 1519 1518 1516 1515 1515 1514 1514 1513 1512 1512 1511 1510 1510 1510 1510 1509 1509 1509 1509 1509 1509 1510 1510 1511 1513 1514 1515 1515 1517 1517 1519
1518 1518 1517 1517 1517 1517 1516 1516 1516 1515 1513 1512 1512 1511 1510 1510 1509 1509 1508 1507 1507 1507 1507 1507 1507 1507 1507 1508 1508 1508 1509 1510 1511 1512 1512 1513 1514 1516
1516 1516 1515 1515 1515 1514 1514 1513 1513 1513 1511 1510 1509 1509 1508 1507 1506 1506 1505 1505 1504 1505 1505 1505 1505 1505 1505 1505 1506 1506 1506 1507 1508 1509 1510 1511 1511 1512
1514 1514 1513 1513 1512 1512 1511 1511 1510 1510 1509 1507 1506 1506 1505 1505 1504 1503 1503 1503 1502 1502 1502 1502 1503 1503 1503 1503 1503 1504 1504 1504 1505 1506 1507 1508 1508 1509
1512 1511 1511 1511 1510 1510 1509 1508 1507 1507 1506 1505 1503 1503 1503 1502 1502 1501 1500 1500 1500 1500 1500 1500 1500 1500 1500 1500 1501 1501 1501 1501 1502 1503 1504 1505 1505 1506
1509 1509 1509 1509 1508 1507 1506 1505 1505 1504 1503 1502 1501 1500 1500 1499 1499 1498 1498 1497 1497 1498 1498 1498 1498 1498 1498 1498 1498 1498 1498 1499 1499 1500 1501 1501 1502 1503
1506 1506 1506 1506 1505 1505 1504 1502 1502 1501 1500 1499 1498 1497 1496 1496 1496 1496 1495 1495 1495 1495 1495 1495 1495 1495 1495 1495 1495 1495 1495 1496 1496 1497 1497 1498 1499 1499
1503 1503 1503 1503 1502 1502 1501 1500 1499 1498 1497 1496 1495 1494 1493 1493 1493 1493 1493 1492 1492 1493 1492 1492 1493 1492 1492 1492 1492 1492 1492 1493 1493 1494 1494 1495 1495 1496
1501 1500 1500 1500 1499 1498 1497 1496 1496 1495 1495 1494 1492 1491 1490 1490 1490 1490 1489 1489 1489 1489 1489 1488 1489 1488 1489 1489 1489 1489 1489 1489 1489 1490 1490 1491 1491 1492
1498 1497 1497 1496 1496 1495 1494 1493 1492 1491 1491 1490 1489 1488 1488 1487 1487 1487 1486 1486 1486 1486 1486 1485 1485 1485 1485 1486 1486 1486 1486 1486 1485 1485 1485 1486 1487 1488
1494 1494 1493 1493 1492 1492 1491 1489 1488 1487 1487 1487 1486 1485 1485 1484 1484 1483 1482 1482 1481 1482 1482 1482 1481 1481 1481 1482 1482 1482 1482 1482 1481 1481 1481 1482 1482 1483
1490 1490 1489 1489 1489 1488 1487 1486 1485 1484 1483 1483 1482 1481 1481 1480 1480 1480 1479 1479 1478 1478 1478 1479 1478 1478 1478 1478 1478 1478 1478 1478 1478 1477 1477 1477 1478 1479
1487 1486 1486 1485 1485 1485 1484 1483 1482 1481 1480 1479 1479 1478 1478 1477 1477 1476 1476 1476 1475 1475 1475 1475 1475 1475 1475 1474 1474 1474 1474 1474 1474 1474 1474 1474 1475 1475
1483 1483 1482 1482 1482 1481 1481 1480 1479 1478 1477 1476 1476 1475 1474 1474 1474 1474 1473 1473 1473 1472 1472 1472 1472 1471 1471 1471 1470 1470 1471 1471 1471 1470 1471 1471 1471 1472
1480 1480 1479 1479 1478 1478 1477 1476 1476 1475 1474 1473 1472 1472 1472 1472 1471 1471 1470 1470 1470 1470 1469 1469 1469 1468 1468 1468 1467 1467 1467 1467 1467 1467 1467 1467 1467 1467
1477 1477 1477 1476 1475 1475 1474 1473 1473 1472 1471 1471 1470 1470 1469 1469 1468 1468 1467 1466 1466 1466 1466 1465 1465 1465 1465 1465 1464 1463 1463 1463 1463 1463 1463 1463 1464 1464
1475 1475 1474 1473 1473 1472 1471 1471 1470 1470 1469 1468 1467 1467 1466 1466 1466 1465 1464 1464 1463 1462 1462 1461 1461 1461 1461 1461 1461 1460 1460 1459 1460 1460 1459 1459 1460 1460
1473 1472 1472 1471 1470 1470 1469 1468 1468 1467 1466 1465 1465 1464 1464 1463 1463 1462 1461 1461 1460 1459 1458 1458 1457 1457 1457 1457 1458 1457 1456 1456 1456 1456 1456 1455 1455 1456
1471 1470 1470 1469 1468 1468 1467 1466 1465 1465 1464 1463 1463 1462 1461 1461 1460 1459 1458 1457 1457 1456 1456 1455 1454 1454 1453 1453 1453 1454 1453 1453 1452 1452 1452 1452 1452 1452
1469 1469 1468 1468 1467 1466 1465 1464 1464 1463 1462 1461 1460 1459 1458 1457 1456 1455 1455 1454 1453 1453 1452 1452 1451 1451 1451 1451 1450 1450 1450 1450 1449 1449 1449 1449 1448 1448
1467 1467 1467 1466 1465 1465 1464 1463 1462 1461 1460 1459 1458 1457 1456 1454 1453 1452 1451 1451 1450 1449 1448 1448 1448 1449 1448 1448 1447 1446 1447 1447 1447 1446 1446 1445 1444 1444
1465 1465 1465 1464 1463 1462 1461 1460 1459 1458 1457 1457 1456 1455 1454 1453 1451 1450 1449 1447 1446 1446 1445 1445 1445 1445 1444 1444 1443 1443 1443 1443 1443 1443 1443 1443 1442 1440
1463 1463 1462 1462 1461 1460 1459 1458 1457 1456 1455 1454 1453 1452 1451 1450 1449 1447 1446 1445 1443 1442 1442 1442 1441 1441 1441 1440 1440 1440 1440 1439 1439 1438 1439 1439 1439 1438